Погода в Казанской Арчаде

Россия / Пензенская область     53°00′50″N   44°13′51″E
темп.,
°C
ветер,
м/с
пор.,
м/с
влажн.,
%
обл.,
%
осадки,
мм/ч
давл.,
гПа
погр.,
м
13 июня, вс
вс1300:00+15ю369115 0.0 1010118
03:00+14ю38955 0.0 1010163
06:00+16ю48915 0.0 1010268
09:00+20ююз69776 0.4 1010862
12:00+22ююз796929 1.3 10101523
15:00+22ююз687099 3.1 10111268
18:00+21юз4780100 0.6 1011719
21:00+17ю359430 2.1 101287
14 июня, пн
пн1400:00+16ююз339368 0.2 101239
03:00+15ююз22940 0.2 101329
06:00+17ю23900 0.0 1014132
09:00+21ю3379100 0.5 1015513
12:00+23ю236671 0.9 10151135
15:00+23ююв4467100 1.9 10151134
18:00+20ю4688100 0.9 1015307
21:00+16ю2292100 0.9 101516
15 июня, вт
вт1500:00+16ю118899 0.0 101511
03:00+15всв118894 0.0 101511
06:00+16св2286100 0.0 101437
09:00+19в3478100 0.0 1014425
12:00+20вюв2379100 0.4 1013584
15:00+21вюв347777 1.4 1012908
18:00+22юв2481100 1.4 1010277
21:00+18в228789 1.6 100919
16 июня, ср
ср1600:00+17вюв22915 0.0 100918
03:00+16ю22935 0.0 100930
06:00+17ю239220 0.0 1008169
09:00+21ю348099 0.0 1008747
12:00+22ююз447699 0.1 1008977
15:00+22юз457977 0.9 1008784
18:00+22зюз348220 1.9 1008644
21:00+18зсз48945 2.7 1010186
17 июня, чт
чт1700:00+16з479881 0.0 1011165
03:00+17с6995100 0.0 1012403
06:00+16с5995100 0.1 1014587
09:00+18с798897 0.1 1015638
12:00+21ссв797130 0.0 10161059
15:00+20ссв6874100 0.1 1018941
18:00+20ссв597741 0.1 1019648
21:00+16ссв513860 0.1 1020385